Private Wetterstation Sandau
Wetterdaten: Woche 28.01.13 - 03.02.13 (KW5)
Datum Zeit Temp. A. Feuchte A. Luftdruck Regen Wind Richtung Taupunkt Windchill
28.01.2013 00:00 2,0 C 93 % 1004,6 hPa 0,0 l/m 11,3 km/h (2 Bft) W-SW 1,0 C -1,0 C
28.01.2013 01:00 1,9 C 93 % 1005,4 hPa 0,0 l/m 8,1 km/h (2 Bft) W-SW 0,9 C -0,4 C
28.01.2013 02:00 1,9 C 93 % 1005,8 hPa 0,0 l/m 6,3 km/h (2 Bft) W-SW 0,9 C 0,3 C
28.01.2013 03:00 1,5 C 93 % 1006,1 hPa 0,0 l/m 6,4 km/h (2 Bft) W-SW 0,5 C -0,2 C
28.01.2013 04:00 1,2 C 93 % 1006,7 hPa 0,0 l/m 5,9 km/h (2 Bft) S-SW 0,2 C -0,2 C
28.01.2013 05:00 -0,0 C 92 % 1007,4 hPa 0,0 l/m 2,9 km/h (1 Bft) SW -1,1 C -0,7 C
28.01.2013 06:00 0,4 C 93 % 1008,1 hPa 0,0 l/m 7,8 km/h (2 Bft) SW -0,6 C -2,0 C
28.01.2013 07:00 1,1 C 93 % 1008,7 hPa 0,0 l/m 6,6 km/h (2 Bft) SW 0,1 C -0,9 C
28.01.2013 08:00 0,5 C 93 % 1009,5 hPa 0,0 l/m 1,4 km/h (1 Bft) S-SW -0,6 C 0,2 C
28.01.2013 09:00 1,1 C 93 % 1010,4 hPa 0,0 l/m 7,3 km/h (2 Bft) SW 0,1 C -1,0 C
28.01.2013 10:00 2,7 C 91 % 1011,0 hPa 0,5 l/m 8,1 km/h (2 Bft) SW 1,4 C 0,5 C
28.01.2013 11:00 3,2 C 89 % 1011,7 hPa 0,0 l/m 10,6 km/h (2 Bft) W-SW 1,5 C 0,4 C
28.01.2013 12:00 3,9 C 87 % 1012,1 hPa 0,5 l/m 9,6 km/h (2 Bft) S-SW 1,9 C 1,6 C
28.01.2013 13:00 4,7 C 84 % 1012,3 hPa 0,0 l/m 8,4 km/h (2 Bft) S-SW 2,3 C 2,8 C
28.01.2013 14:00 4,8 C 82 % 1012,8 hPa 0,0 l/m 7,3 km/h (2 Bft) SW 2,0 C 3,2 C
28.01.2013 15:00 4,5 C 81 % 1013,1 hPa 0,0 l/m 8,5 km/h (2 Bft) W-SW 1,5 C 2,5 C
28.01.2013 16:00 3,7 C 83 % 1013,4 hPa 0,0 l/m 7,0 km/h (2 Bft) SW 1,2 C 2,1 C
28.01.2013 17:00 3,2 C 85 % 1013,8 hPa 0,0 l/m 5,3 km/h (1 Bft) S-SW 0,8 C 2,1 C
28.01.2013 18:00 2,7 C 87 % 1014,1 hPa 0,0 l/m 4,1 km/h (1 Bft) S 0,7 C 2,1 C
28.01.2013 19:00 2,4 C 87 % 1013,9 hPa 0,0 l/m 6,0 km/h (2 Bft) S-SW 0,5 C 1,1 C
28.01.2013 20:00 2,3 C 88 % 1013,2 hPa 0,0 l/m 6,9 km/h (2 Bft) S-SW 0,4 C 0,7 C
28.01.2013 21:00 2,2 C 88 % 1013,0 hPa 0,0 l/m 8,2 km/h (2 Bft) S-SW 0,4 C -0,0 C
28.01.2013 22:00 1,7 C 88 % 1013,0 hPa 0,0 l/m 4,9 km/h (1 Bft) S -0,1 C 0,8 C
28.01.2013 23:00 1,3 C 90 % 1012,3 hPa 0,0 l/m 7,0 km/h (2 Bft) SW -0,2 C -0,6 C
29.01.2013 00:00 1,3 C 90 % 1011,3 hPa 0,0 l/m 8,1 km/h (2 Bft) S-SW -0,1 C -0,8 C
29.01.2013 01:00 1,8 C 90 % 1010,2 hPa 0,0 l/m 10,9 km/h (2 Bft) S-SW 0,3 C -1,3 C
29.01.2013 02:00 2,1 C 88 % 1008,6 hPa 0,0 l/m 8,9 km/h (2 Bft) S-SW 0,4 C -0,3 C
29.01.2013 03:00 2,0 C 89 % 1007,3 hPa 1,0 l/m 14,7 km/h (3 Bft) S-SW 0,3 C -1,5 C
29.01.2013 04:00 1,9 C 90 % 1006,0 hPa 0,0 l/m 14,7 km/h (3 Bft) S 0,4 C -2,0 C
29.01.2013 05:00 2,2 C 91 % 1004,8 hPa 0,0 l/m 16,2 km/h (3 Bft) SW 0,9 C -1,8 C
29.01.2013 06:00 2,6 C 91 % 1004,3 hPa 0,0 l/m 13,3 km/h (3 Bft) S-SW 1,3 C -0,8 C
29.01.2013 07:00 2,9 C 91 % 1004,4 hPa 0,0 l/m 11,4 km/h (2 Bft) S-SW 1,6 C -0,0 C
29.01.2013 08:00 3,1 C 91 % 1004,3 hPa 0,0 l/m 12,0 km/h (2 Bft) S-SW 1,8 C 0,0 C
29.01.2013 09:00 3,7 C 92 % 1004,4 hPa 0,0 l/m 12,7 km/h (3 Bft) S 2,5 C 0,7 C
29.01.2013 10:00 4,0 C 92 % 1004,6 hPa 0,0 l/m 10,9 km/h (2 Bft) SW 2,8 C 1,4 C
29.01.2013 11:00 5,1 C 92 % 1004,9 hPa 0,0 l/m 10,4 km/h (2 Bft) S-SW 4,0 C 2,8 C
29.01.2013 12:00 5,8 C 92 % 1004,8 hPa 0,5 l/m 11,5 km/h (2 Bft) S-SW 4,6 C 3,4 C
29.01.2013 13:00 6,4 C 92 % 1005,1 hPa 0,0 l/m 8,9 km/h (2 Bft) W-SW 5,2 C 4,7 C
29.01.2013 14:00 7,0 C 90 % 1005,5 hPa 0,0 l/m 10,4 km/h (2 Bft) W-SW 5,5 C 5,1 C
29.01.2013 15:00 6,8 C 90 % 1005,8 hPa 0,0 l/m 9,6 km/h (2 Bft) W-SW 5,3 C 5,0 C
29.01.2013 16:00 5,9 C 90 % 1006,3 hPa 0,0 l/m 5,5 km/h (1 Bft) SW 4,4 C 5,0 C
29.01.2013 17:00 5,2 C 92 % 1006,8 hPa 0,5 l/m 8,2 km/h (2 Bft) SW 4,0 C 3,5 C
29.01.2013 18:00 5,4 C 93 % 1006,9 hPa 0,0 l/m 8,4 km/h (2 Bft) W-SW 4,3 C 3,6 C
29.01.2013 19:00 5,1 C 93 % 1007,1 hPa 0,0 l/m 6,9 km/h (2 Bft) W-SW 4,1 C 3,8 C
29.01.2013 20:00 5,2 C 93 % 1006,7 hPa 0,0 l/m 7,3 km/h (2 Bft) S-SW 4,2 C 3,8 C
29.01.2013 21:00 5,0 C 93 % 1006,6 hPa 0,0 l/m 6,4 km/h (2 Bft) S-SW 4,0 C 3,7 C
29.01.2013 22:00 4,6 C 93 % 1005,9 hPa 0,0 l/m 9,3 km/h (2 Bft) S 3,6 C 2,6 C
29.01.2013 23:00 4,9 C 94 % 1005,1 hPa 1,0 l/m 8,6 km/h (2 Bft) S 4,0 C 3,0 C
30.01.2013 00:00 5,4 C 94 % 1004,5 hPa 1,6 l/m 7,8 km/h (2 Bft) S 4,5 C 3,7 C
30.01.2013 01:00 6,1 C 94 % 1003,9 hPa 0,5 l/m 9,0 km/h (2 Bft) S 5,3 C 4,3 C
30.01.2013 02:00 6,9 C 95 % 1003,3 hPa 1,0 l/m 11,8 km/h (2 Bft) S-SW 6,1 C 4,6 C
30.01.2013 03:00 8,3 C 95 % 1002,9 hPa 0,0 l/m 17,3 km/h (3 Bft) W-SW 7,6 C 5,7 C
30.01.2013 04:00 9,3 C 95 % 1002,7 hPa 0,0 l/m 21,5 km/h (4 Bft) W-SW 8,5 C 6,4 C
30.01.2013 05:00 9,4 C 93 % 1002,5 hPa 0,0 l/m 16,9 km/h (3 Bft) W-SW 8,4 C 7,1 C
30.01.2013 06:00 9,6 C 92 % 1002,3 hPa 0,0 l/m 17,0 km/h (3 Bft) W-SW 8,3 C 7,2 C
30.01.2013 07:00 9,9 C 90 % 1001,7 hPa 0,0 l/m 17,7 km/h (3 Bft) W-SW 8,4 C 7,6 C
30.01.2013 08:00 10,3 C 89 % 1001,1 hPa 0,0 l/m 18,7 km/h (3 Bft) W-SW 8,5 C 10,3 C
30.01.2013 09:00 10,6 C 87 % 1000,6 hPa 0,0 l/m 17,6 km/h (3 Bft) SW 8,5 C 10,6 C
30.01.2013 10:00 11,2 C 85 % 1000,2 hPa 0,0 l/m 17,5 km/h (3 Bft) W-SW 8,8 C 11,2 C
30.01.2013 11:00 12,0 C 84 % 999,3 hPa 0,0 l/m 21,2 km/h (4 Bft) S-SW 9,3 C 12,0 C
30.01.2013 12:00 11,6 C 85 % 999,2 hPa 2,6 l/m 22,5 km/h (4 Bft) W 9,1 C 11,5 C
30.01.2013 13:00 8,8 C 88 % 1000,5 hPa 0,5 l/m 4,7 km/h (1 Bft) N 6,9 C 8,2 C
30.01.2013 14:00 8,2 C 90 % 1000,4 hPa 0,0 l/m 6,0 km/h (2 Bft) SW 6,7 C 7,5 C
30.01.2013 15:00 8,4 C 91 % 1000,3 hPa 0,0 l/m 7,6 km/h (2 Bft) SW 7,0 C 7,4 C
30.01.2013 16:00 8,0 C 91 % 1000,5 hPa 0,0 l/m 7,4 km/h (2 Bft) W-SW 6,5 C 7,0 C
30.01.2013 17:00 8,0 C 90 % 1001,0 hPa 0,0 l/m 14,6 km/h (3 Bft) W-SW 6,4 C 5,5 C
30.01.2013 18:00 7,7 C 86 % 1001,4 hPa 0,0 l/m 19,4 km/h (3 Bft) W 5,5 C 4,6 C
30.01.2013 19:00 7,3 C 84 % 1002,2 hPa 0,0 l/m 14,4 km/h (3 Bft) W-SW 4,7 C 4,8 C
30.01.2013 20:00 6,6 C 87 % 1002,9 hPa 0,0 l/m 18,3 km/h (3 Bft) W-SW 4,6 C 3,5 C
30.01.2013 21:00 5,9 C 87 % 1002,9 hPa 0,0 l/m 20,2 km/h (4 Bft) W-SW 4,0 C 2,3 C
30.01.2013 22:00 6,1 C 86 % 1002,7 hPa 0,0 l/m 22,8 km/h (4 Bft) W 3,9 C 2,2 C
30.01.2013 23:00 6,8 C 81 % 1002,7 hPa 0,0 l/m 26,0 km/h (4 Bft) W-SW 3,7 C 2,8 C
31.01.2013 00:00 5,8 C 85 % 1004,0 hPa 3,1 l/m 21,6 km/h (4 Bft) W-NW 3,5 C 2,0 C
31.01.2013 01:00 5,3 C 86 % 1004,4 hPa 0,0 l/m 21,0 km/h (4 Bft) W 3,2 C 1,5 C
31.01.2013 02:00 5,6 C 84 % 1004,9 hPa 0,0 l/m 17,3 km/h (3 Bft) W 3,2 C 2,4 C
31.01.2013 03:00 5,9 C 79 % 1005,5 hPa 0,0 l/m 20,8 km/h (4 Bft) W 2,6 C 2,3 C
31.01.2013 04:00 6,1 C 75 % 1005,8 hPa 0,0 l/m 25,1 km/h (4 Bft) W 2,1 C 2,1 C
31.01.2013 05:00 6,3 C 74 % 1006,0 hPa 0,0 l/m 25,8 km/h (4 Bft) W 2,1 C 2,3 C
31.01.2013 06:00 6,4 C 74 % 1006,5 hPa 0,0 l/m 25,2 km/h (4 Bft) W 2,0 C 2,5 C
31.01.2013 07:00 6,4 C 74 % 1007,1 hPa 0,0 l/m 22,9 km/h (4 Bft) W-SW 2,0 C 2,6 C
31.01.2013 08:00 6,3 C 73 % 1007,5 hPa 0,0 l/m 23,6 km/h (4 Bft) W 1,8 C 2,5 C
31.01.2013 09:00 6,4 C 72 % 1007,8 hPa 0,0 l/m 20,4 km/h (4 Bft) W 1,7 C 2,9 C
31.01.2013 10:00 6,5 C 73 % 1007,8 hPa 0,0 l/m 16,2 km/h (3 Bft) W 2,0 C 3,5 C
31.01.2013 11:00 6,9 C 73 % 1007,0 hPa 0,0 l/m 14,3 km/h (3 Bft) W 2,4 C 4,3 C
31.01.2013 12:00 7,4 C 72 % 1006,5 hPa 0,0 l/m 25,0 km/h (4 Bft) W 2,6 C 3,7 C
31.01.2013 13:00 7,6 C 71 % 1005,5 hPa 0,0 l/m 21,5 km/h (4 Bft) W 2,7 C 4,3 C
31.01.2013 14:00 7,5 C 71 % 1003,9 hPa 0,0 l/m 20,7 km/h (4 Bft) W 2,6 C 4,3 C
31.01.2013 15:00 7,1 C 72 % 1003,1 hPa 0,0 l/m 30,1 km/h (5 Bft) W 2,3 C 2,8 C
31.01.2013 16:00 6,4 C 77 % 1002,4 hPa 0,0 l/m 25,8 km/h (4 Bft) W 2,6 C 2,3 C
31.01.2013 17:00 6,0 C 79 % 1002,1 hPa 0,0 l/m 28,9 km/h (5 Bft) W-SW 2,7 C 1,6 C
31.01.2013 18:00 5,3 C 84 % 1002,1 hPa 0,5 l/m 23,2 km/h (4 Bft) W 2,8 C 1,2 C
31.01.2013 19:00 5,4 C 84 % 1002,2 hPa 0,0 l/m 18,6 km/h (3 Bft) SW 2,9 C 1,9 C
31.01.2013 20:00 5,3 C 85 % 1002,2 hPa 0,0 l/m 19,0 km/h (3 Bft) W 3,1 C 1,8 C
31.01.2013 21:00 5,9 C 83 % 1002,5 hPa 0,0 l/m 17,3 km/h (3 Bft) W 3,3 C 2,7 C
31.01.2013 22:00 6,3 C 79 % 1002,5 hPa 0,0 l/m 20,4 km/h (4 Bft) W 2,9 C 3,0 C
31.01.2013 23:00 6,7 C 74 % 1002,3 hPa 0,0 l/m 20,8 km/h (4 Bft) W 2,4 C 3,2 C
01.02.2013 00:00 6,8 C 73 % 1002,4 hPa 0,0 l/m 20,0 km/h (4 Bft) W 2,3 C 3,5 C
01.02.2013 01:00 6,4 C 75 % 1002,6 hPa 0,0 l/m 20,5 km/h (4 Bft) W 2,2 C 2,9 C
01.02.2013 02:00 6,5 C 74 % 1002,8 hPa 0,0 l/m 19,4 km/h (3 Bft) W-SW 2,2 C 3,2 C
01.02.2013 03:00 6,4 C 74 % 1003,0 hPa 0,0 l/m 21,0 km/h (4 Bft) W 2,1 C 3,0 C
01.02.2013 04:00 6,2 C 75 % 1003,4 hPa 0,0 l/m 19,3 km/h (3 Bft) W 2,2 C 2,8 C
01.02.2013 05:00 5,7 C 81 % 1003,8 hPa 0,0 l/m 10,5 km/h (2 Bft) W 2,7 C 3,5 C
01.02.2013 06:00 5,6 C 81 % 1003,5 hPa 0,0 l/m 14,8 km/h (3 Bft) W 2,6 C 2,6 C
01.02.2013 07:00 5,4 C 81 % 1003,5 hPa 0,0 l/m 14,6 km/h (3 Bft) W 2,5 C 2,4 C
01.02.2013 08:00 5,3 C 82 % 1003,5 hPa 0,0 l/m 12,7 km/h (3 Bft) W-SW 2,6 C 2,8 C
01.02.2013 09:00 5,5 C 83 % 1003,2 hPa 0,0 l/m 15,5 km/h (3 Bft) W 2,8 C 2,3 C
01.02.2013 10:00 6,1 C 81 % 1003,2 hPa 0,5 l/m 16,5 km/h (3 Bft) W 3,2 C 3,1 C
01.02.2013 11:00 6,7 C 81 % 1002,6 hPa 0,0 l/m 7,8 km/h (2 Bft) W-SW 3,6 C 5,3 C
01.02.2013 12:00 7,0 C 80 % 1002,1 hPa 0,0 l/m 8,7 km/h (2 Bft) W-SW 3,8 C 5,4 C
01.02.2013 13:00 6,9 C 80 % 1001,2 hPa 0,0 l/m 7,4 km/h (2 Bft) W-SW 3,7 C 5,6 C
01.02.2013 14:00 6,8 C 81 % 1000,2 hPa 0,0 l/m 7,2 km/h (2 Bft) W-SW 3,7 C 5,5 C
01.02.2013 15:00 6,5 C 82 % 998,7 hPa 0,0 l/m 4,5 km/h (1 Bft) W-SW 3,6 C 6,0 C
01.02.2013 16:00 5,8 C 84 % 997,5 hPa 0,0 l/m 3,7 km/h (1 Bft) W-SW 3,3 C 5,6 C
01.02.2013 17:00 5,3 C 85 % 996,5 hPa 0,0 l/m 4,3 km/h (1 Bft) W-SW 3,0 C 4,7 C
01.02.2013 18:00 5,0 C 87 % 995,9 hPa 0,0 l/m 6,1 km/h (2 Bft) W-SW 3,0 C 3,9 C
01.02.2013 19:00 4,5 C 88 % 994,7 hPa 0,0 l/m 5,1 km/h (1 Bft) W-SW 2,6 C 3,7 C
01.02.2013 20:00 4,1 C 89 % 994,0 hPa 1,0 l/m 3,8 km/h (1 Bft) W-SW 2,4 C 3,5 C
01.02.2013 21:00 4,0 C 90 % 993,0 hPa 0,5 l/m 2,3 km/h (1 Bft) W-SW 2,5 C 3,8 C
01.02.2013 22:00 3,6 C 90 % 991,9 hPa 1,0 l/m 1,2 km/h (1 Bft) W-SW 2,2 C 3,5 C
01.02.2013 23:00 3,4 C 91 % 991,1 hPa 0,5 l/m 0,2 km/h (0 Bft) N-NW 2,0 C 3,4 C
02.02.2013 00:00 3,2 C 91 % 990,8 hPa 1,0 l/m 1,7 km/h (1 Bft) N-NW 1,9 C 3,1 C
02.02.2013 01:00 2,8 C 91 % 990,6 hPa 1,0 l/m 2,4 km/h (1 Bft) N-NW 1,5 C 2,5 C
02.02.2013 02:00 2,1 C 91 % 990,6 hPa 1,0 l/m 4,1 km/h (1 Bft) N-NW 0,8 C 1,4 C
02.02.2013 03:00 1,2 C 92 % 990,9 hPa 1,0 l/m 7,4 km/h (2 Bft) N-NW 0,0 C -1,1 C
02.02.2013 04:00 1,3 C 93 % 991,4 hPa 1,6 l/m 8,9 km/h (2 Bft) N-NW 0,3 C -1,1 C
02.02.2013 05:00 1,5 C 93 % 992,0 hPa 1,0 l/m 8,3 km/h (2 Bft) N-NW 0,5 C -1,0 C
02.02.2013 06:00 2,2 C 94 % 992,7 hPa 0,5 l/m 7,1 km/h (2 Bft) N-NW 1,3 C 0,1 C
02.02.2013 07:00 2,4 C 93 % 993,7 hPa 0,0 l/m 7,9 km/h (2 Bft) N-NW 1,4 C 0,3 C
02.02.2013 08:00 2,7 C 93 % 994,8 hPa 0,0 l/m 7,5 km/h (2 Bft) N-NW 1,7 C 0,9 C
02.02.2013 09:00 3,1 C 93 % 995,9 hPa 0,0 l/m 7,5 km/h (2 Bft) N-NW 2,0 C 1,2 C
02.02.2013 10:00 3,4 C 92 % 996,9 hPa 0,0 l/m 8,2 km/h (2 Bft) N-NW 2,3 C 1,4 C
02.02.2013 11:00 2,6 C 90 % 998,4 hPa 0,0 l/m 16,2 km/h (3 Bft) N 1,1 C -1,3 C
02.02.2013 12:00 2,2 C 86 % 999,5 hPa 0,5 l/m 15,1 km/h (3 Bft) N 0,1 C -1,6 C
02.02.2013 13:00 2,6 C 85 % 1000,3 hPa 0,0 l/m 11,5 km/h (2 Bft) N 0,4 C -0,2 C
02.02.2013 14:00 2,4 C 78 % 1001,5 hPa 0,0 l/m 15,2 km/h (3 Bft) N-NO -1,0 C -1,2 C
02.02.2013 15:00 1,8 C 73 % 1002,4 hPa 0,0 l/m 15,8 km/h (3 Bft) N-NO -2,4 C -2,2 C
02.02.2013 16:00 1,4 C 74 % 1003,6 hPa 0,0 l/m 8,0 km/h (2 Bft) N -2,7 C -0,8 C
02.02.2013 17:00 0,8 C 75 % 1004,8 hPa 0,0 l/m 5,1 km/h (1 Bft) N-NO -3,1 C -0,5 C
02.02.2013 18:00 -0,3 C 80 % 1005,7 hPa 0,0 l/m 0,8 km/h (0 Bft) W-NW -3,4 C -0,3 C
02.02.2013 19:00 -0,9 C 83 % 1006,4 hPa 0,0 l/m 0,9 km/h (0 Bft) NW -3,4 C -0,9 C
02.02.2013 20:00 -1,3 C 85 % 1007,2 hPa 0,0 l/m 0,4 km/h (0 Bft) W-NW -3,6 C -1,3 C
02.02.2013 21:00 -1,9 C 85 % 1007,6 hPa 0,0 l/m 0,9 km/h (0 Bft) NW -4,0 C -1,9 C
02.02.2013 22:00 -2,1 C 87 % 1008,3 hPa 0,0 l/m 1,4 km/h (1 Bft) NW -4,0 C -2,3 C
02.02.2013 23:00 -2,6 C 87 % 1008,9 hPa 0,0 l/m 2,2 km/h (1 Bft) N-NW -4,4 C -2,8 C
03.02.2013 00:00 -2,7 C 88 % 1009,6 hPa 0,0 l/m 1,5 km/h (1 Bft) N-NW -4,4 C -2,7 C
03.02.2013 01:00 -2,8 C 88 % 1010,3 hPa 0,0 l/m 1,9 km/h (1 Bft) W-NW -4,4 C -3,0 C
03.02.2013 02:00 -2,8 C 89 % 1011,0 hPa 0,0 l/m 2,4 km/h (1 Bft) W-NW -4,3 C -2,8 C
03.02.2013 03:00 -2,8 C 90 % 1011,4 hPa 0,0 l/m 3,5 km/h (1 Bft) W-NW -4,2 C -3,3 C
03.02.2013 04:00 -2,3 C 91 % 1011,9 hPa 0,0 l/m 10,1 km/h (2 Bft) W -3,5 C -5,6 C
03.02.2013 05:00 -1,3 C 92 % 1012,3 hPa 0,0 l/m 6,8 km/h (2 Bft) W-NW -2,5 C -3,5 C
03.02.2013 06:00 -0,6 C 92 % 1012,0 hPa 0,0 l/m 7,1 km/h (2 Bft) W-NW -1,7 C -2,7 C
03.02.2013 07:00 -0,1 C 92 % 1012,2 hPa 0,0 l/m 5,6 km/h (1 Bft) W -1,3 C -1,6 C
03.02.2013 08:00 0,4 C 91 % 1012,6 hPa 0,0 l/m 7,8 km/h (2 Bft) W-SW -0,9 C -1,8 C
03.02.2013 09:00 1,1 C 91 % 1012,5 hPa 0,0 l/m 5,9 km/h (2 Bft) W -0,2 C -0,6 C
03.02.2013 10:00 2,2 C 90 % 1012,5 hPa 0,0 l/m 8,5 km/h (2 Bft) W 0,7 C 0,0 C
03.02.2013 11:00 3,1 C 87 % 1013,0 hPa 0,0 l/m 7,6 km/h (2 Bft) W 1,0 C 1,4 C
03.02.2013 12:00 2,9 C 87 % 1012,8 hPa 0,0 l/m 8,7 km/h (2 Bft) W-SW 0,9 C 0,7 C
03.02.2013 13:00 3,3 C 86 % 1012,0 hPa 0,0 l/m 11,2 km/h (2 Bft) W-SW 1,1 C 0,7 C
03.02.2013 14:00 3,4 C 83 % 1011,2 hPa 0,0 l/m 14,3 km/h (3 Bft) W-SW 0,8 C -0,0 C
03.02.2013 15:00 3,3 C 80 % 1010,4 hPa 0,0 l/m 11,9 km/h (2 Bft) W-SW 0,2 C 0,3 C
03.02.2013 16:00 2,9 C 80 % 1009,2 hPa 0,0 l/m 9,9 km/h (2 Bft) W-SW -0,2 C 0,3 C
03.02.2013 17:00 2,7 C 80 % 1008,1 hPa 0,0 l/m 10,6 km/h (2 Bft) W-SW -0,4 C -0,2 C
03.02.2013 18:00 2,9 C 80 % 1007,3 hPa 0,0 l/m 11,1 km/h (2 Bft) W-SW -0,1 C 0,1 C
03.02.2013 19:00 2,1 C 85 % 1006,1 hPa 0,5 l/m 15,6 km/h (3 Bft) SW -0,1 C -1,7 C
03.02.2013 20:00 1,1 C 89 % 1004,5 hPa 0,0 l/m 12,3 km/h (3 Bft) SW -0,5 C -2,5 C
03.02.2013 21:00 0,9 C 91 % 1003,9 hPa 0,5 l/m 14,9 km/h (3 Bft) W-SW -0,4 C -3,1 C
03.02.2013 22:00 1,4 C 91 % 1003,4 hPa 1,0 l/m 18,5 km/h (3 Bft) W-SW 0,1 C -3,1 C
03.02.2013 23:00 1,8 C 92 % 1003,3 hPa 1,0 l/m 15,8 km/h (3 Bft) W 0,6 C -2,0 C
Min-Datum _ 03.02.13 31.01.13 02.02.13 - 28.01.13 - 03.02.13 03.02.13
_ Min-Zeit 01:06 12:51 01:56 - 05:06 - 01:06 04:21
Minimum _ -2,9 C 69 % 990,4 hPa - 0,0 km/h (0 Bft) - -4,6 C -8,2 C
Max-Datum _ 30.01.13 30.01.13 28.01.13 31.01.13 31.01.13 - 30.01.13 30.01.13
_ Max-Zeit 11:31 03:51 18:31 00:11 15:56 - 12:21 11:31
Maximum _ 12,1 C 96 % 1014,2 hPa 3,1 l/m 47,2 km/h
W (6 Bft)
- 9,7 C 12,1 C
Durchschnitt _ 4,1 C 86 % 1004,5 hPa #28,5 l/m 11,6 km/h (2 Bft) W-SW 2,0 C 1,9 C
(c) by David Heller